Flag for Denmark Weather past 2 weeks in Roskilde, Denmark

Now
81 °F

Warm.


Feels Like: 81 °F
Forecast: 63 / 78 °F
Wind: 13 mph from East

Location: Koebenhavn / Roskilde

Current Time: Jul 25, 2014 at 1:26:03 PM

Latest Report: Jul 25, 2014 at 12:50 PM


Visibility: N/A

Pressure: 30.09 "Hg

Humidity: 42%

Dew point: 55 °F

Location of RoskildeLocation

Historic Weather in Roskilde — Graph

°F

Roskilde temperature yesterday

Maximum temperature yesterday: 81 °F (at 1:50 PM)
Minimum temperature yesterday: 61 °F (at 1:20 AM)
Average temperature yesterday: 71 °F

Past Weeks' High & Low Weather Summary

 TemperatureHumidityPressure
High84 °F (Jul 10, 12:50 PM)100% (Jul 13, 3:20 AM)30.24 "Hg (Jul 13, 3:20 AM)
Low52 °F (Jul 12, 3:50 AM)32% (Jul 23, 4:50 PM)29.56 "Hg (Jul 14, 6:20 AM)
Average67 °F70%30.02 "Hg
* Reported Jul 10 12:20 PM — Jul 25 12:20 PM, Roskilde, Weather by CustomWeather, © 2014

Note: Actual official high and low records may vary slightly from our data, if they occured in-between our weather recording intervals... More about our weather records

Advertising

Roskilde weather history for previous 24 hours

 ConditionsComfort  
Time TempWeatherWind HumidityBarometerVisibility
12:20 PM
Jul 25
81 °FPleasantly warm.12 mph39%30.09 "HgN/A
11:50 AM81 °FPleasantly warm.14 mph34%30.09 "HgN/A
11:20 AM81 °FPleasantly warm.13 mph37%30.09 "HgN/A
10:50 AM81 °FWarm.9 mph42%30.09 "HgN/A
10:20 AM77 °FWarm.9 mph44%30.09 "HgN/A
9:50 AM77 °FWarm.7 mph47%30.09 "HgN/A
9:20 AM77 °FWarm.8 mph51%30.09 "HgN/A
8:50 AM73 °FMild.8 mph57%30.09 "HgN/A
8:20 AM72 °FMild.8 mph65%30.09 "HgN/A
7:50 AM72 °FMild.8 mph65%30.09 "HgN/A
7:20 AM68 °FMild.6 mph73%30.09 "HgN/A
6:50 AM68 °FMild.7 mph73%30.09 "HgN/A
6:20 AM64 °FMild.7 mph83%30.09 "HgN/A
5:50 AM64 °FMild.6 mph83%30.09 "HgN/A
5:20 AM63 °FMild.5 mph83%30.09 "HgN/A
4:50 AM61 °FCool.5 mph88%30.09 "HgN/A
4:20 AM64 °FMild.5 mph78%30.09 "HgN/A
3:50 AM64 °FMild.6 mph78%30.09 "HgN/A
3:20 AM66 °FMild.7 mph73%30.09 "HgN/A
2:50 AM66 °FMild.6 mph73%30.12 "HgN/A
2:20 AM66 °FMild.5 mph68%30.12 "HgN/A
1:50 AM68 °FPassing clouds.7 mph64%30.12 "HgN/A
1:20 AM68 °FPassing clouds.7 mph64%30.12 "HgN/A
12:50 AM66 °FMild.3 mph68%30.12 "HgN/A
12:20 AM66 °FMild.5 mph68%30.12 "HgN/A
11:50 PM
Jul 24
66 °FPassing clouds.5 mph68%30.12 "HgN/A
11:20 PM66 °FPassing clouds.6 mph68%30.12 "HgN/A
10:50 PM64 °FMild.6 mph73%30.12 "HgN/A
10:20 PM70 °FMild.3 mph60%30.12 "HgN/A
9:50 PM70 °FMild.No wind64%30.12 "HgN/A
9:20 PM72 °FPassing clouds.2 mph61%30.12 "HgN/A
8:50 PM73 °FMild.1 mph57%30.12 "HgN/A
8:20 PM75 °FPassing clouds.3 mph54%30.09 "HgN/A
7:50 PM77 °FWarm.6 mph47%30.09 "HgN/A
7:20 PM77 °FWarm.6 mph47%30.09 "HgN/A
6:50 PM77 °FWarm.7 mph47%30.09 "HgN/A
6:20 PM77 °FWarm.8 mph47%30.09 "Hg1 mi
5:50 PM77 °FWarm.12 mph44%30.12 "HgN/A
5:20 PM79 °FWarm.12 mph45%30.12 "HgN/A
4:50 PM79 °FWarm.12 mph45%30.12 "HgN/A
4:20 PM79 °FWarm.13 mph42%30.12 "HgN/A
3:50 PM81 °FWarm.13 mph42%30.12 "HgN/A
3:20 PM81 °FWarm.13 mph45%30.12 "HgN/A
2:50 PM81 °FWarm.13 mph42%30.12 "HgN/A
2:20 PM81 °FWarm.13 mph42%30.12 "HgN/A
1:50 PM81 °FPassing clouds.12 mph39%30.12 "HgN/A
1:20 PM79 °FWarm.9 mph42%30.15 "HgN/A
Weather by CustomWeather, © 2014

See weather overviewHow to use our weather pages